LY3FF-10 Weather Reports


Display with metric or nautical units.
time (UTC)temp
F
wind
direction
speed
MPH
gust
MPH
rain 1hr
in
rain 24hr
in
rain mn
in
humidity
%
barometer
mb
20260506112207 68 0.0 0.0 0.00 0.00 0.00 47 987.9
20260506104028 65 0.0 0.0 0.00 0.00 0.00 49 988.2
20260506101357 64 0.0 0.0 0.00 0.00 0.00 50 988.6
20260506100058 86 0.0 0.0 0.00 0.00 0.00 51 988.7
20260506093222 61 0.0 0.0 0.00 0.00 0.00 52 988.5
20260506091755 61 0.0 0.0 0.00 0.00 0.00 53 988.5
20260506090418 70 0.0 0.0 0.00 0.00 0.00 53 988.6
20260506082105 66 0.0 0.0 0.00 0.00 0.00 56 988.8
20260506072632 56 0.0 0.0 0.00 0.00 0.00 59 989.3
20260506071339 55 0.0 0.0 0.00 0.00 0.00 59 989.3
20260506062146 53 0.0 0.0 0.00 0.00 0.00 61 989.5
20260506051253 56 0.0 0.0 0.00 0.00 0.00 68 989.8
20260506044518 51 0.0 0.0 0.00 0.00 0.00 69 989.6
20260506040647 50 0.0 0.0 0.00 0.00 0.00 70 989.5
20260506034129 50 0.0 0.0 0.00 0.00 0.00 69 989.4
20260506032727 53 0.0 0.0 0.00 0.00 0.00 69 989.3
20260506025918 53 0.0 0.0 0.00 0.00 0.00 68 989.3
20260506024552 50 0.0 0.0 0.00 0.00 0.00 68 989.2
20260506023242 50 0.0 0.0 0.00 0.00 0.00 68 989.2
20260506020748 50 0.0 0.0 0.00 0.00 0.00 66 988.9
20260506015509 50 0.0 0.0 0.00 0.00 0.00 66 989.0
20260506014050 50 0.0 0.0 0.00 0.00 0.00 66 988.8
20260506012609 54 0.0 0.0 0.00 0.00 0.00 65 988.9
20260506011152 54 0.0 0.0 0.00 0.00 0.00 65 989.1
20260506005937 55 0.0 0.0 0.00 0.00 0.00 65 989.2
20260505231326 55 0.0 0.0 0.00 0.00 0.00 61 988.9
20260505230122 55 0.0 0.0 0.00 0.00 0.00 61 988.8
20260505224637 55 0.0 0.0 0.00 0.00 0.00 60 988.5
20260505221957 58 0.0 0.0 0.00 0.00 0.00 59 988.5
20260505220625 56 0.0 0.0 0.00 0.00 0.00 60 988.8
20260505215356 56 0.0 0.0 0.00 0.00 0.00 60 988.5
20260505211348 58 0.0 0.0 0.00 0.00 0.00 63 988.8
20260505210109 57 0.0 0.0 0.00 0.00 0.00 64 988.8
20260505204702 57 0.0 0.0 0.00 0.00 0.00 65 988.5
20260505200617 58 0.0 0.0 0.00 0.00 0.00 59 987.2
20260505192506 62 0.0 0.0 0.00 0.00 0.00 49 987.8
20260505191253 62 0.0 0.0 0.00 0.00 0.00 49 987.9
20260505185836 64 0.0 0.0 0.00 0.00 0.00 49 988.1
20260505181930 63 0.0 0.0 0.00 0.00 0.00 49 988.1
20260505180537 64 0.0 0.0 0.00 0.00 0.00 49 987.8
20260505173841 65 0.0 0.0 0.00 0.00 0.00 48 988.2
20260505172621 64 0.0 0.0 0.00 0.00 0.00 48 988.2
20260505164512 66 0.0 0.0 0.00 0.00 0.00 46 988.1
20260505161608 67 0.0 0.0 0.00 0.00 0.00 46 988.1
20260505160402 68 0.0 0.0 0.00 0.00 0.00 46 988.1
20260505152333 67 0.0 0.0 0.00 0.00 0.00 46 988.2
20260505140222 74 0.0 0.0 0.00 0.00 0.00 35 988.5
20260505124104 75 0.0 0.0 0.00 0.00 0.00 36 989.0
20260505115947 92 0.0 0.0 0.00 0.00 0.00 35 989.3